Regional Weather Roundup
Issued by NWS

Home | Current Version | Previous Version | Graphics & Text | Print | Product List | Glossary On
Versions: 1 2 3 4 5 6 7 8 9 10 11 12 13 14 15 16 17 18 19 20 21 22 23 24 25 26 27 28 29 30 31 32 33 34 35 36 37 38 39 40 41 42 43 44 45 46 47 48 49 50
000
ASUS43 KMPX 270101
RWRMN
WEATHER ROUNDUP FOR MINNESOTA
NATIONAL WEATHER SERVICE TWIN CITIES/CHANHASSEN MN
800 PM CDT MON JUN 26 2017


NOTE: "FAIR" INDICATES FEW OR NO CLOUDS BELOW 12,000 FEET WITH NO
SIGNIFICANT WEATHER AND/OR OBSTRUCTIONS TO VISIBILITY. N/A MEANS
CURRENT SKY AND/OR WEATHER CONDITIONS ARE NOT AVAILABLE.

MNZ060>063-068>070-270200-
   Twin Cities Metro

CITY           SKY/WX    TMP DP  RH WIND       PRES   REMARKS
TWIN CITIES    PTCLDY    70  42  36 VRB3      30.10S
ST PAUL        PTCLDY    67  45  45 NW8       30.10S
CRYSTAL        PTCLDY    69  40  34 N5        30.09S
BLAINE         PTCLDY    70  45  40 CALM      30.10S
LAKEVILLE      CLEAR     66  45  45 NE5       30.10F
EDEN PRAIRIE   CLEAR     70  42  36 N6        30.09S
SOUTH ST PAUL  PTCLDY    67  42  39 N5        30.10S
LAKE ELMO      FAIR      66  45  45 CALM      30.10F
$$
MNZ001>005-007-008-013>017-022>024-027-028-270200-
   Northwest Minnesota

CITY           SKY/WX    TMP DP  RH WIND       PRES   REMARKS
BEMIDJI        SUNNY     67  40  36 W8        30.07F
HALLOCK        SUNNY     72  37  28 W5        30.04F
ROSEAU         SUNNY     70  46  43 W7        30.05S
WARROAD        SUNNY     70  50  49 W6        30.04F
CROOKSTON      SUNNY     70  45  40 NW3       30.08S
FOSSTON        SUNNY     68  39  34 W7        30.09S
DETROIT LAKES  SUNNY     68  36  30 NW6       30.11F
MOORHEAD       SUNNY     72  36  26 W3        30.09F
PARK RAPIDS    SUNNY     68  37  32 NW7       30.09F
MAHNOMEN       FAIR      67  39  35 NW8       30.09S
$$
MNZ006-009>011-018-025>026-270200-
   North Central Minnesota

CITY           SKY/WX    TMP DP  RH WIND       PRES   REMARKS
BAUDETTE       SUNNY     67  48  50 NW3       30.04S
FLAG ISLAND    SUNNY     66  45  45 N7        30.02S
INTL FALLS     SUNNY     66  45  46 W7        30.02S
WASKISH        MOSUNNY   66  48  52 NW6       30.05F
BIG FORK       PTSUNNY   66  45  45 CALM      30.05S
LONGVILLE      SUNNY     66  43  42 W6        30.08S
GRAND RAPIDS   SUNNY     66  41  40 NW9G20    30.08S
CRANE LAKE     MOCLDY    64  45  48 NW5       30.04S
ORR            PTCLDY    64  45  48 NW5       30.01F
COOK           PTCLDY    64  46  52 CALM      30.04S
WALKER         FAIR      65  40  39 W6        30.08S
$$
MNZ012-019>021-037-270200-
   Northeast Minnesota

CITY           SKY/WX    TMP DP  RH WIND       PRES   REMARKS
DULUTH         PTCLDY    60  49  66 W6        30.05S
ELY            PTCLDY    61  46  59 CALM      30.03F
HIBBING        CLOUDY    63  42  46 W9        30.04S
EVELETH        PTCLDY    63  46  55 CALM      30.05S
DULUTH HARBOR  LGT RAIN  61  54  77 CALM      30.06S
TWO HARBORS    CLOUDY    59  54  82 CALM      30.03S
SILVER BAY     CLEAR     63  48  59 CALM      30.01S
GRAND MARAIS     N/A     51  45  79 CALM      29.99S
G MARAIS ARPRT PTCLDY    57  41  54 NW5       30.02S
$$
MNZ029>031-032-039>041-046>048-054>057-064-270200-
   West Central Minnesota

CITY           SKY/WX    TMP DP  RH WIND       PRES   REMARKS
FERGUS FALLS   SUNNY     68  41  37 NW6       30.08F
WHEATON        SUNNY     70  37  30 CALM      30.13S
MORRIS         SUNNY     70  37  30 CALM      30.12S
ALEXANDRIA     SUNNY     66  39  37 NW8       30.13F
ELBOW LAKE     FAIR      67  42  41 NW7       30.12F
WADENA         SUNNY     66  43  42 CALM      30.10F
GLENWOOD       SUNNY     66  41  39 NW7       30.13S
APPLETON       SUNNY     70  36  28 CALM      30.12S
BENSON         SUNNY     68  37  32 NE3       30.14S
ORTONVILLE     SUNNY     70  37  30 CALM      30.13R
MADISON        SUNNY     70  45  40 CALM      30.13S
WILLMAR        FAIR      70  39  32 N7        30.14S
$$
MNZ033>034-036-042>043-049>051-058-059-270200-
   Central Minnesota

CITY           SKY/WX    TMP DP  RH WIND       PRES   REMARKS
ST CLOUD       CLEAR     67  43  41 NW5       30.10S
SAUK CENTRE    FAIR      67  40  36 NW9       30.12S
PAYNESVILLE    SUNNY     69  39  33 N7        30.12S
AITKIN         CLEAR     64  43  45 W5        30.07S
PINE RIVER     SUNNY     66  45  45 NW6       30.12S
BRAINERD       SUNNY     67  41  38 NW7       30.09S
STAPLES        SUNNY     66  36  32 W8        30.10F
LONG PRAIRIE   FAIR      64  41  42 W7        30.12S
LITTLE FALLS   SUNNY     68  36  30 NW3       30.11S
BUFFALO        CLEAR     68  40  35 NW6       30.11S
MAPLE LAKE     CLEAR     68  44  41 NW7       30.11S
HUTCHINSON     CLEAR     69  45  42 NW5       30.13S
$$
MNZ037-044-045-052-053-270200-
   East Central Minnesota

CITY           SKY/WX    TMP DP  RH WIND       PRES   REMARKS
PRINCETON      PTCLDY    70  45  40 N3        30.10S
MORA           CLEAR     64  41  42 NW8       30.10S
CAMBRIDGE      CLEAR     70  48  46 W5        30.08S
RUSH CITY      PTCLDY    64  45  48 NW5       30.09S
MOOSE LAKE     PTCLDY    64  43  45 NW3       30.05S
HINCKLEY       CLOUDY    66  46  48 W6        30.08S
CLOQUET        PTCLDY    63  43  48 NW3       30.06F
MCGREGOR       PTCLDY    68  39  34 W9        30.07F
$$
MNZ071>073-080-081-089-090-097-098-270200-
   Southwest Minnesota

CITY           SKY/WX    TMP DP  RH WIND       PRES   REMARKS
MONTEVIDEO     SUNNY     70  41  35 E3        30.13S
GRANITE FALLS  SUNNY     70  42  36 NW3       30.15S
CANBY          SUNNY     69  40  35 CALM      30.15S
MARSHALL       SUNNY     68  41  37 N7        30.14S
REDWOOD FALLS  CLEAR     68  40  35 NW5       30.12F
OLIVIA         SUNNY     70  39  32 NW6       30.12S
PIPESTONE      SUNNY     70  36  28 CALM      30.15S
WINDOM         CLEAR     66  37  34 N3        30.14F
WORTHINGTON    CLEAR     67  40  37 N7        30.15F
JACKSON        CLEAR     64  37  36 CALM      30.15S
TRACY          SUNNY     68  44  41 NE7       30.14F
SLAYTON        SUNNY     66  39  36 E3        30.16S
$$
MNZ065>067-074>077-082>085-091>093-270200-
   South Central Minnesota

CITY           SKY/WX    TMP DP  RH WIND       PRES   REMARKS
MANKATO        CLEAR     68  40  35 N5        30.12S
NEW ULM        CLEAR     64  41  42 NW5       30.12S
ST JAMES       CLEAR     66  43  42 NW5       30.14S
FAIRMONT       CLEAR     67  42  40 N6        30.14S
GLENCOE        CLEAR     69  45  41 NW6       30.11S
FARIBAULT      PTCLDY    68  43  40 NE7       30.11S
OWATONNA       PTCLDY    66  45  45 NW7       30.12R
WASECA         CLEAR     64  37  36 N8        30.13S
ALBERT LEA     CLEAR     66  37  34 NW5       30.12S
$$
MNZ078>079-086>088-094>096-270200-
   Southeast Minnesota

CITY           SKY/WX    TMP DP  RH WIND       PRES   REMARKS
ROCHESTER      MOCLDY    64  45  49 N10       30.12R
RED WING       PTCLDY    66  43  42 CALM      30.09S
STANTON        MOCLDY    67  48  51 CALM      30.10S
DODGE CENTER   PTCLDY    64  43  45 NE7       30.12S
WINONA         PTCLDY    66  45  45 N3        30.10S
AUSTIN         CLEAR     64  45  48 NW5       30.11F
PRESTON        PTCLDY    62  44  51 N5        30.12R
$$
ABBREVIATIONS USED IN REMARKS
   TC - TEMPERATURES IN CELSIUS
  WCI - WIND CHILL INDEX
   HX - HEAT INDEX
  VSB - VISIBILITY
$$




USA.gov is the U.S. government's official web portal to all federal, state and local government web resources and services.